This is the latest recevied weather packets stored in our database for station/object IU1OLT-6. If no packets are shown the sender has not sent any weather packets the latest 10 day(s).
| Time | Temp. | Humidity | Pressure | Rain* | Wind** | Luminosity | Snow |
|---|---|---|---|---|---|---|---|
| 1787994423 | 13.33° C | 89% | 1011.4 hPa | 0 mm | - | - | - |
| 1787993512 | 13.33° C | 91% | 1011.4 hPa | 0 mm | - | - | - |
| 1787992552 | 13.33° C | 89% | 1011.4 hPa | 0 mm | - | - | - |
| 1787991592 | 12.78° C | 87% | 1011.2 hPa | 0 mm | - | - | - |
| 1787990632 | 12.78° C | 81% | 1010.9 hPa | 0 mm | - | - | - |
| 1787989672 | 12.78° C | 83% | 1010.8 hPa | 0 mm | - | - | - |
| 1787988712 | 12.22° C | 75% | 1010.8 hPa | 0 mm | - | - | - |
| 1787987752 | 11.11° C | 79% | 1010.4 hPa | 0 mm | - | - | - |
| 1787986792 | 10.56° C | 99% | 1010.5 hPa | 0 mm | - | - | - |
| 1787985832 | 11.67° C | 99% | 1010.1 hPa | 0 mm | - | - | - |
| 1787984920 | 11.67° C | 99% | 1010.4 hPa | 0 mm | - | - | - |
| 1787984008 | 11.67° C | 99% | 1010.3 hPa | 0 mm | - | - | - |
| 1787983048 | 12.22° C | 99% | 1010.4 hPa | 0 mm | - | - | - |
| 1787982088 | 12.22° C | 99% | 1010.4 hPa | 0 mm | - | - | - |
| 1787981175 | 12.22° C | 99% | 1010.4 hPa | 0 mm | - | - | - |
| 1787980264 | 12.22° C | 99% | 1010 hPa | 0 mm | - | - | - |
| 1787979304 | 12.22° C | 99% | 1010.2 hPa | 0 mm | - | - | - |
| 1787978344 | 12.78° C | 99% | 1010.1 hPa | 0 mm | - | - | - |
| 1787977384 | 12.22° C | 99% | 1009.6 hPa | 0 mm | - | - | - |
| 1787976424 | 12.78° C | 99% | 1009.6 hPa | 0 mm | - | - | - |
| 1787975464 | 12.78° C | 99% | 1008.4 hPa | 0 mm | - | - | - |
| 1787974504 | 13.33° C | 99% | 1009.3 hPa | 0 mm | - | - | - |
| 1787973592 | 12.78° C | 99% | 1009.2 hPa | 0 mm | - | - | - |
| 1787972680 | 13.33° C | 99% | 1009.5 hPa | 0 mm | - | - | - |
| 1787971720 | 13.33° C | 99% | 1008.8 hPa | 0 mm | - | - | - |
* Rain latest hour (hover to see other rain measurements)
** Current wind speed in m/s (hover to see current wind gust speed)